AIQ661 VVPQ-VTBD

Flight info

Callsign AIQ661
Flight time 1h 2m
Altitude 34000
Route NUMDI1D NUMDI R334 RYN DCT SEHNA SEHNA3A
Aircraft A320/M-SDE3FGHIRWY/LB1

Departure

Time 2026-04-22 10:34
Airport Phú Quốc International Airport (VVPQ)

Arrival

Time 2026-04-22 11:36
Airport Don Mueang International Airport (VTBD)
Time Latitude Longitude Altitude Speed Heading
2026-04-22 09:08 10.16416 103.99978 66 ft 0 kts 186°
2026-04-22 10:24 10.16423 103.99978 66 ft 4 kts 187°
2026-04-22 10:24 10.16449 103.99983 63 ft 4 kts 194°
2026-04-22 10:25 10.16475 103.99992 59 ft 4 kts 210°
2026-04-22 10:25 10.16493 104.00008 58 ft 4 kts 256°
2026-04-22 10:25 10.16494 104.00019 59 ft 1 kts 276°
2026-04-22 10:25 10.16494 104.00020 59 ft 0 kts 276°
2026-04-22 10:27 10.16494 104.00015 66 ft 2 kts 276°
2026-04-22 10:27 10.16497 103.99991 66 ft 5 kts 275°
2026-04-22 10:27 10.16501 103.99945 63 ft 8 kts 276°
2026-04-22 10:28 10.16508 103.99879 62 ft 11 kts 275°
2026-04-22 10:28 10.16556 103.99842 66 ft 12 kts
2026-04-22 10:28 10.16648 103.99852 62 ft 15 kts
2026-04-22 10:28 10.16745 103.99844 60 ft 13 kts 309°
2026-04-22 10:29 10.16767 103.99756 66 ft 12 kts 275°
2026-04-22 10:29 10.16775 103.99669 63 ft 14 kts 276°
2026-04-22 10:29 10.16785 103.99566 66 ft 16 kts 276°
2026-04-22 10:29 10.16797 103.99450 66 ft 17 kts 275°
2026-04-22 10:30 10.16810 103.99325 66 ft 17 kts 275°
2026-04-22 10:30 10.16821 103.99208 66 ft 16 kts 275°
2026-04-22 10:30 10.16831 103.99103 61 ft 14 kts 275°
2026-04-22 10:30 10.16841 103.99005 61 ft 15 kts 276°
2026-04-22 10:31 10.16853 103.98886 66 ft 19 kts 276°
2026-04-22 10:31 10.16867 103.98738 66 ft 23 kts 275°
2026-04-22 10:31 10.16884 103.98565 66 ft 27 kts 276°
2026-04-22 10:31 10.16904 103.98368 63 ft 29 kts 276°
2026-04-22 10:32 10.16925 103.98160 66 ft 30 kts 276°
2026-04-22 10:32 10.16944 103.97967 66 ft 24 kts 276°
2026-04-22 10:32 10.16964 103.97871 61 ft 11 kts 309°
2026-04-22 10:32 10.17029 103.97863 66 ft 9 kts 16°
2026-04-22 10:33 10.17085 103.97891 59 ft 9 kts 33°
2026-04-22 10:33 10.17120 103.97957 62 ft 13 kts 94°
2026-04-22 10:33 10.17105 103.98101 65 ft 43 kts 97°
2026-04-22 10:33 10.17050 103.98652 67 ft 110 kts 95°
2026-04-22 10:34 10.16954 103.99608 68 ft 160 kts 96°
2026-04-22 10:34 10.16821 104.00805 473 ft 173 kts 95°
2026-04-22 10:34 10.16701 104.02022 1148 ft 174 kts 99°
2026-04-22 10:34 10.16576 104.03296 1519 ft 192 kts 98°
2026-04-22 10:35 10.16436 104.04700 1774 ft 213 kts 97°
2026-04-22 10:35 10.16278 104.06289 2106 ft 237 kts 97°
2026-04-22 10:35 10.16112 104.07959 2925 ft 239 kts 96°
2026-04-22 10:35 10.15947 104.09635 3788 ft 240 kts 95°
2026-04-22 10:36 10.15798 104.11325 4637 ft 242 kts 90°
2026-04-22 10:36 10.16137 104.13003 5380 ft 246 kts 63°
2026-04-22 10:36 10.17196 104.14394 5970 ft 260 kts 37°
2026-04-22 10:36 10.18867 104.15183 6553 ft 271 kts 16°
2026-04-22 10:37 10.20696 104.15722 7306 ft 276 kts 17°
2026-04-22 10:37 10.24440 104.16641 8855 ft 284 kts
2026-04-22 10:37 10.26376 104.16211 9577 ft 291 kts 335°
2026-04-22 10:38 10.28003 104.14956 10096 ft 306 kts 311°
2026-04-22 10:38 10.29082 104.12994 10282 ft 332 kts 295°
2026-04-22 10:38 10.30038 104.10780 10543 ft 350 kts 295°
2026-04-22 10:38 10.31012 104.08490 11085 ft 356 kts 294°
2026-04-22 10:39 10.32004 104.06164 11706 ft 361 kts 295°
2026-04-22 10:39 10.33005 104.03847 12313 ft 365 kts 295°
2026-04-22 10:39 10.34040 104.01477 12919 ft 369 kts 295°
2026-04-22 10:39 10.35094 103.99087 13529 ft 373 kts 295°
2026-04-22 10:40 10.36162 103.96670 14074 ft 376 kts 294°
2026-04-22 10:40 10.37235 103.94238 14616 ft 380 kts 294°
2026-04-22 10:40 10.38316 103.91778 15168 ft 382 kts 294°
2026-04-22 10:40 10.39402 103.89306 15721 ft 385 kts 294°
2026-04-22 10:41 10.40496 103.86817 16250 ft 388 kts 294°
2026-04-22 10:41 10.41599 103.84310 16778 ft 390 kts 294°
2026-04-22 10:41 10.42696 103.81817 17294 ft 393 kts 294°
2026-04-22 10:41 10.43869 103.79298 17793 ft 396 kts 299°
2026-04-22 10:42 10.45429 103.76981 18253 ft 400 kts 310°
2026-04-22 10:42 10.47391 103.74968 18674 ft 403 kts 318°
2026-04-22 10:42 10.49479 103.73047 19058 ft 407 kts 318°
2026-04-22 10:42 10.51580 103.71106 19456 ft 410 kts 318°
2026-04-22 10:43 10.53691 103.69147 19889 ft 412 kts 318°
2026-04-22 10:43 10.55814 103.67172 20283 ft 415 kts 318°
2026-04-22 10:43 10.57922 103.65210 20694 ft 418 kts 320°
2026-04-22 10:43 10.60240 103.63423 21060 ft 419 kts 329°
2026-04-22 10:44 10.62733 103.61868 21456 ft 422 kts 330°
2026-04-22 10:44 10.65244 103.60307 21862 ft 424 kts 330°
2026-04-22 10:44 10.67770 103.58736 22265 ft 427 kts 330°
2026-04-22 10:44 10.70308 103.57154 22649 ft 430 kts 330°
2026-04-22 10:45 10.72864 103.55556 23035 ft 432 kts 330°
2026-04-22 10:45 10.75433 103.53950 23403 ft 435 kts 330°
2026-04-22 10:45 10.77983 103.52354 23714 ft 437 kts 330°
2026-04-22 10:45 10.80580 103.50729 24046 ft 439 kts 330°
2026-04-22 10:46 10.83187 103.49100 24380 ft 440 kts 330°
2026-04-22 10:46 10.85798 103.47469 24719 ft 442 kts 330°
2026-04-22 10:46 10.88422 103.45830 25040 ft 443 kts 330°
2026-04-22 10:46 10.91054 103.44189 25361 ft 444 kts 330°
2026-04-22 10:47 10.93694 103.42541 25676 ft 446 kts 330°
2026-04-22 10:47 10.96343 103.40886 25982 ft 448 kts 330°
2026-04-22 10:47 10.99000 103.39224 26292 ft 449 kts 330°
2026-04-22 10:47 11.01630 103.37576 26595 ft 451 kts 330°
2026-04-22 10:48 11.04309 103.35899 26895 ft 453 kts 330°
2026-04-22 10:48 11.06997 103.34215 27195 ft 454 kts 330°
2026-04-22 10:48 11.09694 103.32526 27491 ft 456 kts 330°
2026-04-22 10:48 11.12402 103.30832 27774 ft 458 kts 330°
2026-04-22 10:49 11.15126 103.29132 28059 ft 460 kts 330°
2026-04-22 10:49 11.17858 103.27426 28333 ft 462 kts 330°
2026-04-22 10:49 11.20596 103.25712 28604 ft 463 kts 330°
2026-04-22 10:49 11.23345 103.23990 28865 ft 465 kts 330°
2026-04-22 10:50 11.26067 103.22282 29117 ft 466 kts 330°
2026-04-22 10:50 11.28833 103.20543 29379 ft 468 kts 330°
2026-04-22 10:50 11.31613 103.18800 29637 ft 470 kts 330°
2026-04-22 10:50 11.34396 103.17052 29881 ft 471 kts 330°
2026-04-22 10:51 11.37193 103.15293 30133 ft 472 kts 330°
2026-04-22 10:51 11.39983 103.13540 30438 ft 470 kts 330°
2026-04-22 10:51 11.42764 103.11791 30727 ft 470 kts 330°
2026-04-22 10:51 11.45540 103.10044 31022 ft 469 kts 330°
2026-04-22 10:52 11.48286 103.08317 31321 ft 469 kts 330°
2026-04-22 10:52 11.51058 103.06575 31632 ft 468 kts 330°
2026-04-22 10:52 11.53822 103.04840 31946 ft 467 kts 330°
2026-04-22 10:52 11.56583 103.03104 32262 ft 466 kts 330°
2026-04-22 10:53 11.59334 103.01365 32581 ft 465 kts 329°
2026-04-22 10:53 11.61912 102.99370 32890 ft 467 kts 320°
2026-04-22 10:53 11.64178 102.96992 33206 ft 468 kts 314°
2026-04-22 10:53 11.66351 102.94525 33529 ft 467 kts 314°
2026-04-22 10:54 11.68492 102.92100 33774 ft 467 kts 314°
2026-04-22 10:54 11.72836 102.87188 33820 ft 466 kts 314°
2026-04-22 10:55 11.77227 102.82228 33826 ft 475 kts 314°
2026-04-22 10:55 11.81657 102.77215 33827 ft 476 kts 314°
2026-04-22 10:56 11.86071 102.72210 33818 ft 478 kts 314°
2026-04-22 10:56 11.90529 102.67161 33824 ft 479 kts 314°
2026-04-22 10:57 11.94986 102.62111 33816 ft 479 kts 314°
2026-04-22 10:57 11.99441 102.57061 33813 ft 479 kts 314°
2026-04-22 10:58 12.03894 102.52000 33812 ft 479 kts 314°
2026-04-22 10:58 12.08318 102.46978 33812 ft 479 kts 314°
2026-04-22 10:59 12.12772 102.41923 33812 ft 479 kts 314°
2026-04-22 10:59 12.17222 102.36872 33812 ft 478 kts 314°
2026-04-22 11:00 12.21668 102.31816 33808 ft 478 kts 314°
2026-04-22 11:00 12.26084 102.26788 33807 ft 478 kts 314°
2026-04-22 11:01 12.30528 102.21732 33810 ft 478 kts 314°
2026-04-22 11:01 12.34974 102.16676 33803 ft 478 kts 314°
2026-04-22 11:02 12.39406 102.11608 33804 ft 478 kts 314°
2026-04-22 11:02 12.43843 102.06542 33807 ft 478 kts 314°
2026-04-22 11:03 12.48250 102.01514 33799 ft 477 kts 314°
2026-04-22 11:03 12.52682 101.96458 33796 ft 477 kts 313°
2026-04-22 11:04 12.57107 101.91403 33801 ft 477 kts 313°
2026-04-22 11:04 12.60785 101.87202 33792 ft 477 kts 313°
2026-04-22 11:05 12.65921 101.81322 33794 ft 476 kts 313°
2026-04-22 11:05 12.70338 101.76262 33788 ft 476 kts 313°
2026-04-22 11:06 12.74759 101.71206 33793 ft 476 kts 313°
2026-04-22 11:06 12.79272 101.66286 33795 ft 468 kts 319°
2026-04-22 11:07 12.83969 101.61770 33658 ft 464 kts 318°
2026-04-22 11:07 12.86321 101.59507 33396 ft 465 kts 318°
2026-04-22 11:07 12.88693 101.57225 33141 ft 467 kts 318°
2026-04-22 11:07 12.90295 101.55685 32969 ft 466 kts 318°
2026-04-22 11:08 12.93436 101.52666 32540 ft 469 kts 318°
2026-04-22 11:08 12.95020 101.51144 31802 ft 473 kts 318°
2026-04-22 11:08 12.98269 101.48019 30386 ft 483 kts 318°
2026-04-22 11:08 12.99885 101.46462 30002 ft 479 kts 318°
2026-04-22 11:09 13.02304 101.44129 29238 ft 476 kts 317°
2026-04-22 11:09 13.04698 101.41813 28557 ft 471 kts 317°
2026-04-22 11:09 13.07826 101.38780 27670 ft 464 kts 317°
2026-04-22 11:09 13.09409 101.37249 27232 ft 461 kts 318°
2026-04-22 11:10 13.11735 101.35003 26563 ft 457 kts 318°
2026-04-22 11:10 13.14013 101.32807 25927 ft 454 kts 318°
2026-04-22 11:10 13.17084 101.29851 25063 ft 451 kts 318°
2026-04-22 11:10 13.18595 101.28396 24635 ft 449 kts 318°
2026-04-22 11:11 13.20861 101.26210 24015 ft 446 kts 318°
2026-04-22 11:11 13.23106 101.24039 23650 ft 437 kts 318°
2026-04-22 11:11 13.25280 101.21934 23400 ft 425 kts 317°
2026-04-22 11:11 13.27930 101.19063 22456 ft 413 kts 307°
2026-04-22 11:12 13.28967 101.17387 21841 ft 410 kts 298°
2026-04-22 11:12 13.30004 101.14689 21356 ft 405 kts 286°
2026-04-22 11:12 13.30559 101.11892 21126 ft 405 kts 281°
2026-04-22 11:12 13.31064 101.09054 20884 ft 404 kts 281°
2026-04-22 11:13 13.31574 101.06227 20648 ft 402 kts 281°
2026-04-22 11:13 13.32086 101.03417 20408 ft 400 kts 281°
2026-04-22 11:13 13.32593 101.00620 20172 ft 397 kts 281°
2026-04-22 11:13 13.33094 100.97843 19937 ft 395 kts 281°
2026-04-22 11:14 13.33592 100.95071 19733 ft 393 kts 281°
2026-04-22 11:14 13.34078 100.92352 19748 ft 394 kts 282°
2026-04-22 11:14 13.34740 100.88651 19755 ft 394 kts 281°
2026-04-22 11:14 13.35067 100.86828 19751 ft 393 kts 281°
2026-04-22 11:15 13.35562 100.84061 19750 ft 393 kts 281°
2026-04-22 11:15 13.36054 100.81305 19756 ft 393 kts 281°
2026-04-22 11:15 13.36548 100.78542 19762 ft 393 kts 281°
2026-04-22 11:15 13.37041 100.75781 19759 ft 393 kts 281°
2026-04-22 11:16 13.37536 100.73016 19754 ft 394 kts 281°
2026-04-22 11:16 13.38030 100.70253 19760 ft 393 kts 281°
2026-04-22 11:16 13.38521 100.67485 19760 ft 394 kts 281°
2026-04-22 11:16 13.39001 100.64762 19754 ft 392 kts 281°
2026-04-22 11:17 13.39490 100.62004 19762 ft 393 kts 281°
2026-04-22 11:17 13.39978 100.59242 19761 ft 393 kts 281°
2026-04-22 11:17 13.40470 100.56479 19758 ft 394 kts 281°
2026-04-22 11:17 13.40964 100.53707 19603 ft 394 kts 281°
2026-04-22 11:18 13.41454 100.50943 19369 ft 392 kts 281°
2026-04-22 11:18 13.41943 100.48198 19147 ft 389 kts 281°
2026-04-22 11:18 13.42429 100.45472 18922 ft 388 kts 281°
2026-04-22 11:18 13.42903 100.42790 18701 ft 386 kts 282°
2026-04-22 11:19 13.43380 100.40080 18473 ft 385 kts 282°
2026-04-22 11:19 13.44057 100.37439 18260 ft 381 kts 294°
2026-04-22 11:19 13.45356 100.35093 18031 ft 377 kts 309°
2026-04-22 11:19 13.47189 100.33207 17780 ft 372 kts 324°
2026-04-22 11:20 13.49417 100.31884 17528 ft 369 kts 339°
2026-04-22 11:20 13.51867 100.31139 17261 ft 366 kts 347°
2026-04-22 11:20 13.54336 100.30525 16871 ft 365 kts 347°
2026-04-22 11:20 13.56798 100.29917 16472 ft 362 kts 347°
2026-04-22 11:21 13.59213 100.29324 16082 ft 362 kts 347°
2026-04-22 11:21 13.61654 100.28723 15713 ft 359 kts 347°
2026-04-22 11:21 13.64075 100.28124 15341 ft 357 kts 347°
2026-04-22 11:21 13.66481 100.27528 14970 ft 354 kts 347°
2026-04-22 11:22 13.68868 100.26937 14598 ft 352 kts 347°
2026-04-22 11:22 13.71246 100.26354 14232 ft 351 kts 348°
2026-04-22 11:22 13.73665 100.26112 13865 ft 349 kts
2026-04-22 11:22 13.76054 100.26472 13491 ft 347 kts 15°
2026-04-22 11:23 13.78238 100.27390 13239 ft 340 kts 29°
2026-04-22 11:23 13.80218 100.28636 13110 ft 328 kts 31°
2026-04-22 11:23 13.82135 100.29844 12984 ft 318 kts 31°
2026-04-22 11:23 13.84005 100.31015 12751 ft 312 kts 30°
2026-04-22 11:24 13.85845 100.32165 12637 ft 308 kts 31°
2026-04-22 11:24 13.87682 100.33314 12356 ft 308 kts 30°
2026-04-22 11:24 13.89511 100.34459 12031 ft 306 kts 30°
2026-04-22 11:24 13.91327 100.35598 11712 ft 305 kts 30°
2026-04-22 11:25 13.93133 100.36734 11394 ft 304 kts 30°
2026-04-22 11:25 13.94909 100.37853 11083 ft 303 kts 30°
2026-04-22 11:25 13.96700 100.38979 10846 ft 301 kts 30°
2026-04-22 11:25 13.98488 100.40102 10658 ft 301 kts 30°
2026-04-22 11:26 14.00273 100.41222 10367 ft 300 kts 30°
2026-04-22 11:26 14.02052 100.42336 10060 ft 299 kts 30°
2026-04-22 11:26 14.03829 100.43450 9643 ft 301 kts 30°
2026-04-22 11:26 14.05617 100.44575 9233 ft 300 kts 29°
2026-04-22 11:27 14.07396 100.45694 8769 ft 301 kts 30°
2026-04-22 11:27 14.09126 100.46781 8634 ft 290 kts 30°
2026-04-22 11:27 14.10816 100.47843 8514 ft 279 kts 30°
2026-04-22 11:27 14.12442 100.48865 8391 ft 269 kts 30°
2026-04-22 11:28 14.14008 100.49851 8194 ft 261 kts 30°
2026-04-22 11:28 14.15540 100.50815 7834 ft 256 kts 30°
2026-04-22 11:28 14.17054 100.51769 7549 ft 255 kts 29°
2026-04-22 11:28 14.18542 100.52747 7291 ft 250 kts 37°
2026-04-22 11:29 14.19682 100.54078 6600 ft 258 kts 63°
2026-04-22 11:29 14.20144 100.55862 6045 ft 261 kts 89°
2026-04-22 11:29 14.19793 100.57672 5532 ft 258 kts 116°
2026-04-22 11:29 14.18740 100.59121 5068 ft 251 kts 138°
2026-04-22 11:30 14.17470 100.60333 4581 ft 247 kts 139°
2026-04-22 11:30 14.16218 100.61519 4122 ft 242 kts 139°
2026-04-22 11:30 14.14983 100.62689 3625 ft 241 kts 139°
2026-04-22 11:30 14.13753 100.63856 3221 ft 240 kts 139°
2026-04-22 11:31 14.12536 100.65012 3018 ft 233 kts 139°
2026-04-22 11:31 14.11396 100.66096 2982 ft 211 kts 139°
2026-04-22 11:31 14.10370 100.67072 2987 ft 197 kts 139°
2026-04-22 11:31 14.09374 100.68020 2993 ft 193 kts 140°
2026-04-22 11:32 14.08280 100.68782 2996 ft 189 kts 158°
2026-04-22 11:32 14.07011 100.69102 2929 ft 189 kts 177°
2026-04-22 11:32 14.05733 100.68940 2791 ft 183 kts 196°
2026-04-22 11:32 14.04586 100.68369 2590 ft 185 kts 206°
2026-04-22 11:33 14.03470 100.67740 2346 ft 181 kts 206°
2026-04-22 11:33 14.02387 100.67130 2115 ft 173 kts 206°
2026-04-22 11:33 14.01378 100.66563 1907 ft 163 kts 206°
2026-04-22 11:33 14.00412 100.66016 1701 ft 155 kts 207°
2026-04-22 11:34 13.99559 100.65358 1492 ft 152 kts 218°
2026-04-22 11:34 13.98779 100.64689 1335 ft 141 kts 206°
2026-04-22 11:34 13.97928 100.64218 1141 ft 139 kts 207°
2026-04-22 11:34 13.97080 100.63738 973 ft 138 kts 208°
2026-04-22 11:35 13.96243 100.63267 815 ft 137 kts 206°
2026-04-22 11:35 13.95417 100.62802 655 ft 135 kts 207°
2026-04-22 11:35 13.94574 100.62330 482 ft 143 kts 213°
2026-04-22 11:35 13.93732 100.61857 311 ft 134 kts 208°
2026-04-22 11:36 13.92908 100.61395 135 ft 135 kts 205°
2026-04-22 11:36 13.92102 100.60942 20 ft 122 kts 208°
2026-04-22 11:36 13.91595 100.60658 18 ft 40 kts 208°
2026-04-22 11:36 13.91470 100.60565 14 ft 14 kts 243°
2026-04-22 11:37 13.91491 100.60468 16 ft 14 kts 299°
2026-04-22 11:37 13.91548 100.60442 17 ft 9 kts 24°
2026-04-22 11:37 13.91601 100.60468 17 ft 8 kts 14°
2026-04-22 11:37 13.91634 100.60444 17 ft 6 kts 301°
2026-04-22 11:38 13.91660 100.60427 17 ft 4 kts 350°
2026-04-22 11:38 13.91682 100.60432 17 ft 3 kts 20°
2026-04-22 11:38 13.91759 100.60475 17 ft 13 kts 28°
2026-04-22 11:39 13.91832 100.60516 17 ft 12 kts 28°
2026-04-22 11:39 13.91900 100.60554 17 ft 11 kts 28°
2026-04-22 11:39 13.91961 100.60588 17 ft 9 kts 28°
2026-04-22 11:39 13.92015 100.60619 18 ft 8 kts 29°
2026-04-22 11:40 13.92064 100.60646 18 ft 7 kts 27°
2026-04-22 11:40 13.92107 100.60653 19 ft 6 kts 330°
2026-04-22 11:40 13.92129 100.60624 18 ft 5 kts 302°
2026-04-22 11:40 13.92146 100.60592 19 ft 6 kts 299°
2026-04-22 11:41 13.92173 100.60543 18 ft 10 kts 297°
2026-04-22 11:41 13.92184 100.60477 17 ft 6 kts 254°
2026-04-22 11:41 13.92152 100.60457 17 ft 6 kts 204°
2026-04-22 11:41 13.92138 100.60449 17 ft 1 kts 211°
2026-04-22 11:42 13.92137 100.60448 17 ft 0 kts 211°
2026-04-22 11:45 13.92136 100.60448 18 ft 0 kts 211°
2026-04-22 11:55 13.92137 100.60448 17 ft 0 kts 211°